Notices

What's New in latest Release from April 7th, 2021:

- Updated Glossary, including Speed of Maximum Gust, and Total Hourly Precipitation

- Updated national and regional climate services offices contacts and prices information

- Addition of station inventory lists for 1981-2010, 1971-2000, and 1961-1990 Normals.

If you haven't already, please take our survey and provide feedback about our website: https://eccc.sondage-survey.ca/f/LanguageSelection.aspx?s=442ca660-fcf1-47c0-95a9-59707d6fd709

Hourly Data Report for April 21, 2018

MIRAMICHI RCS
NEW BRUNSWICK
Current Station Operator: ECCC - MSC

47°00'34.000" N
65°27'54.000" W
33.00 m
8100989
71744
ACQ

Download Data

Hourly Data (April 2018)
Hourly Data Report for April 21, 2018
TIME
LST
Temp Definition
°C
Dew Point Definition
°C
Rel Hum Definition
%
Precip. Amount Definition
mm

Wind Dir Definition
10's deg

Wind Spd Definition
km/h
Visibility Definition
km
Stn Press Definition
kPa
Hmdx Definition


Wind Chill Definition


Weather Definition


00:00 -0.7 -1.3 95 0.0 28 4   101.17   -2 LegendNANA
01:00 -0.6 -2.0 90 0.0 30 6   101.15   -3 LegendNANA
02:00 -0.5 -2.5 87 0.0 30 8   101.14   -3 LegendNANA
03:00 -1.2 -2.8 89 0.0 28 10   101.17   -5 LegendNANA
04:00 -1.6 -3.0 90 0.0 26 7   101.16   -4 LegendNANA
05:00 -1.6 -3.3 88 0.0 28 8   101.19   -5 LegendNANA
06:00 -1.6 -3.5 87 0.0 27 6   101.24   -4 LegendNANA
07:00 0.1 -3.4 78 0.3 30 10   101.27     LegendNANA
08:00 1.6 -3.2 70 0.0 29 11   101.31     LegendNANA
09:00 2.9 -5.0 56 0.0 33 14   101.30     LegendNANA
10:00 4.2 -6.3 46 0.0 31 14   101.26     LegendNANA
11:00 5.1 -9.3 35 0.0 31 16   101.24     LegendNANA
12:00 6.0 -8.7 34 0.0 33 13   101.21     LegendNANA
13:00 6.5 -8.6 33 0.0 31 14   101.20     LegendNANA
14:00 6.9 -8.4 33 0.0 31 14   101.19     LegendNANA
15:00 7.6 -8.2 32 0.0 31 11   101.19     LegendNANA
16:00 7.8 -7.7 32 0.0 35 10   101.22     LegendNANA
17:00 7.4 -7.4 34 0.0 33 11   101.27     LegendNANA
18:00 7.2 -8.2 32 0.0 33 13   101.31     LegendNANA
19:00 6.0 -8.3 35 0.0 34 9   101.40     LegendNANA
20:00 4.0 -7.3 44 0.0 31 4   101.48     LegendNANA
21:00 2.5 -6.3 52 0.0 30 2   101.52     LegendNANA
22:00 0.6 -5.6 63 0.0 25 7   101.53     LegendNANA
23:00 0.5 -6.2 61 0.0 26 6   101.54     LegendNANA

Notes on Data Quality.

Legend

  • E = Estimated
  • M = Missing
  • NA = Not Available*
  • [empty] = Indicates an unobserved value
Date modified: